Content
SEND FEEDBACK

Daily
Averages
Monthly
Summary
United States of America

MENARD, MONTANA


Home > North America > United States > Montana
Elevation: 5203 feet     Latitude: 46 01N     Longitude: 111 08W

WEATHER
 
SELECT A DAY
Number of Records: 189,375;   Date Range: 1/1/95 - 7/7/14
 
SHARE

PRINT THIS DATA

[ ← Previous Day ]
WEATHER ALMANAC - FEBRUARY 13, 2013
[ Next Day → ]
[ °C ]   °F
Weather ElementAverageHighLow
Temperature37.7 °F41 °F (9:56 am)35.1 °F (1:56 am)
Dewpoint22.3 °F24.1 °F (6:56 am)19 °F (9:56 pm)
Humidity54 %59 % (1:56 am)47 % (11:56 am)
Barometer30.06 in30.17 in (11:56 pm)29.99 in (8:56 am)
Wind Speed8.2 mph19.6 mph (2:56 pm)
Wind Gust20.7 mph (9:56 am)
Weather ElementAverage
Visibility10 mi
Wind DirectionSSW (186.5 °)

Weather ElementTotal
Precipitation---
Heating Degree Days27 (Base 65)
Averaged from 23 records on February 13, 2013
WEATHER CONDITIONS BREAKOUT
WIND DIRECTION BREAKOUT
WEATHER BY HOUR - FEBRUARY 13, 2013
[ °C ]   °F
Local TimeTemperatureDewpointHumidityBarometerVisibilityWind DirectionWind SpeedGust SpeedPrecipitationEventsConditions
1:56 AM35.1 °F21.9 °F59 %30.09 in10.0 miCalmOvercast
2:56 AM37.0 °F23.0 °F57 %30.08 in10.0 miWSW (240°)9.2 mphOvercast
3:56 AM36.0 °F23.0 °F59 %30.07 in10.0 miNNE (20°)5.8 mphOvercast
4:56 AM37.9 °F23.0 °F55 %30.06 in10.0 miWSW (240°)8.1 mphOvercast
5:56 AM39.0 °F23.0 °F53 %30.02 in10.0 miSW (230°)10.4 mphOvercast
6:56 AM37.0 °F24.1 °F59 %30.03 in10.0 miSSE (160°)5.8 mphOvercast
7:56 AM39.0 °F23.0 °F53 %30.01 in10.0 miCalmOvercast
8:56 AM39.9 °F23.0 °F51 %29.99 in10.0 miWSW (250°)13.8 mphOvercast
9:56 AM41.0 °F23.0 °F49 %30.03 in10.0 miWest (260°)15.0 mph20.7 mphOvercast
10:56 AM41.0 °F24.1 °F51 %30.02 in10.0 miWest (270°)11.5 mphOvercast
11:56 AM41.0 °F21.9 °F47 %30.04 in10.0 miWest (280°)17.3 mphOvercast
12:56 PM39.0 °F24.1 °F55 %30.06 in10.0 miWNW (300°)10.4 mphMostly Cloudy
1:56 PM39.9 °F24.1 °F53 %30.03 in10.0 miWNW (300°)13.8 mphMostly Cloudy
2:56 PM39.0 °F21.9 °F50 %30.02 in10.0 miNW (310°)19.6 mphPartly Cloudy
3:56 PM37.9 °F21.9 °F53 %30.03 in10.0 miNW (310°)17.3 mphClear
4:56 PM37.0 °F23.0 °F57 %30.04 in10.0 miNW (310°)12.7 mphPartly Cloudy
5:56 PM36.0 °F21.9 °F57 %30.07 in10.0 miCalmClear
6:56 PM36.0 °F21.0 °F55 %30.09 in10.0 miCalmMostly Cloudy
7:56 PM37.0 °F19.9 °F50 %30.11 in10.0 miCalmOvercast
8:56 PM36.0 °F21.0 °F55 %30.12 in10.0 miCalmOvercast
9:56 PM36.0 °F19.0 °F50 %30.13 in10.0 miNW (310°)5.8 mphOvercast
10:56 PM35.1 °F21.0 °F57 %30.15 in10.0 miWSW (240°)4.6 mphOvercast
11:56 PM35.1 °F21.0 °F57 %30.17 in10.0 miWest (260°)6.9 mphOvercast
Hourly data recorded from KBZN, located miles away from Menard, Montana







STORIES FROM OUR PARTNERS